GFSNIL_sfc_temp_159.txt.gz
Temp
74 71 75 77 75 73 73 71 70 67 66 65 65 65 64 63 62 59 59 57 57 57
74 73 74 76 75 74 72 71 68 67 65 65 65 64 62 61 59 60 58 56 56 54
74 73 74 75 73 72 71 68 66 65 65 65 63 63 62 60 58 58 56 56 54 53
73 72 73 72 70 69 68 67 66 66 65 64 62 61 59 58 57 56 55 54 53 52
71 70 70 69 68 68 66 67 66 65 63 63 62 60 59 60 57 55 53 52 50 49
70 69 68 68 67 67 66 66 64 64 63 62 61 60 59 58 56 54 52 50 48 47
69 68 68 67 66 65 65 64 63 63 63 62 61 60 60 57 54 53 51 49 48 46
68 67 66 65 64 64 65 64 63 61 58 59 60 61 57 56 53 51 49 48 49 46
65 63 63 63 62 63 63 60 58 55 55 54 59 52 53 54 51 50 49 45 44 45
61 60 61 62 61 61 57 56 54 52 51 51 52 49 49 50 48 46 44 41 41 45
60 59 59 59 56 55 55 53 50 49 49 49 50 48 47 48 45 43 41 40 39 38
59 57 56 54 53 53 51 51 49 47 47 46 46 47 47 47 44 42 39 40 40 40
57 56 54 53 51 51 50 49 49 47 46 46 42 45 46 48 46 41 40 38 40 46
55 53 53 51 51 50 50 49 47 45 44 43 44 44 46 46 47 44 42 41 41 41

GFSNIL_sfc_temp_162.txt.gz
Temp
73 71 71 71 70 69 72 70 68 67 66 65 64 63 63 62 60 59 59 56 54 55
71 71 70 71 71 70 71 69 67 66 65 64 64 63 62 61 59 59 57 54 53 53
70 72 71 71 70 70 69 68 67 66 65 63 63 62 61 59 58 56 55 54 52 50
71 71 71 70 71 69 68 67 67 65 64 62 61 60 59 57 56 53 51 50 49 46
70 71 70 70 69 68 66 66 66 65 63 62 61 60 59 57 54 52 49 47 47 46
70 70 70 68 67 66 66 65 64 63 62 60 60 58 56 54 52 50 48 46 45 43
69 70 68 66 65 65 64 62 62 61 61 60 59 57 56 53 50 48 46 45 44 43
70 68 66 64 64 62 62 61 61 60 59 59 58 58 54 52 48 46 44 44 45 44
67 65 63 62 61 60 59 58 58 58 58 57 57 50 52 51 47 46 44 41 40 42
64 62 61 60 57 55 53 53 55 54 53 50 49 48 48 49 46 43 40 38 38 43
61 59 56 55 52 51 51 51 51 50 50 49 47 46 46 46 44 42 39 38 37 37
57 55 53 52 49 48 49 48 50 50 49 47 45 45 45 46 44 41 39 40 39 39
53 53 51 49 48 47 48 47 49 48 49 49 45 45 44 45 44 40 39 38 39 46
51 50 49 48 47 47 48 48 46 45 45 47 47 45 44 44 45 42 40 40 39 40

GFSNIL_sfc_temp_165.txt.gz
Temp
71 69 72 71 71 70 69 69 69 69 66 64 63 62 62 60 58 58 57 55 53 51
70 69 70 70 69 69 70 69 69 66 65 64 64 62 61 59 57 57 56 54 51 50
71 70 70 69 68 69 69 68 66 65 64 62 61 60 59 57 57 55 54 51 49 47
71 70 69 68 68 69 68 67 66 64 63 61 60 58 55 55 55 53 49 49 48 45
69 68 68 68 69 69 67 66 64 63 62 61 58 57 55 55 53 50 48 47 46 45
69 68 68 69 69 67 66 64 63 62 60 58 57 56 54 54 50 48 46 45 44 43
69 69 68 69 68 66 65 62 61 60 58 58 56 54 53 50 47 46 45 44 44 43
69 69 68 67 66 65 63 62 60 58 56 56 54 53 51 49 46 44 43 44 46 45
67 69 66 64 62 61 60 58 57 55 55 53 52 50 50 49 45 44 43 42 41 42
68 65 63 61 59 57 56 55 53 52 52 49 48 48 47 48 45 42 41 41 41 43
64 60 58 56 55 54 53 50 48 47 47 47 47 46 45 46 44 42 41 40 39 39
60 57 55 54 53 52 50 47 46 46 46 46 45 45 45 46 44 42 40 40 39 39
55 54 52 51 50 50 48 46 45 43 45 47 44 44 44 46 45 41 40 39 40 45
54 52 51 49 48 48 45 43 42 44 46 46 46 44 44 45 46 43 42 41 40 42

GFSNIL_sfc_temp_168.txt.gz
Temp
70 71 70 70 72 69 69 69 70 70 69 66 65 63 62 61 60 58 58 56 55 55
70 70 71 71 70 69 69 70 70 69 66 65 64 62 61 59 56 57 56 54 53 52
69 70 70 70 69 69 69 70 67 66 64 62 60 59 57 56 56 54 53 53 51 50
68 69 69 70 69 69 70 68 67 65 63 60 58 57 55 55 55 53 51 51 50 47
68 69 69 69 69 70 69 67 66 64 62 60 57 57 54 54 53 52 49 49 48 47
68 69 69 70 68 70 67 65 64 62 60 58 57 55 54 52 51 49 48 49 47 46
67 69 69 69 69 67 66 63 61 60 58 56 54 51 50 49 47 46 48 47 46 47
67 68 69 69 68 65 63 61 59 57 54 51 49 48 45 46 46 46 47 47 48 48
66 67 68 67 64 62 59 57 55 52 51 47 46 44 46 45 46 47 46 45 45 47
66 68 69 64 61 58 55 54 52 48 47 43 41 43 44 46 46 45 44 44 44 45
65 62 60 58 56 55 53 50 48 46 45 42 40 42 43 46 45 44 43 43 42 43
61 59 57 55 53 51 49 47 45 45 42 39 40 43 44 46 45 43 42 42 43 43
60 57 54 53 51 51 49 46 44 41 39 42 39 43 45 47 46 43 42 42 43 44
57 54 53 51 49 48 45 43 41 39 39 42 45 44 44 45 46 44 44 43 42 43

GFSNIL_sfc_temp_174.txt.gz
Temp
74 78 82 81 75 77 78 76 78 81 82 82 83 83 83 85 82 80 80 75 72 68
78 73 77 82 81 78 80 79 78 82 81 82 83 83 82 82 78 78 74 66 61 60
77 79 75 74 79 81 81 81 80 79 81 81 82 82 79 75 74 69 68 63 56 54
76 77 79 77 73 77 79 81 80 79 76 77 76 75 68 68 65 65 60 57 53 49
74 75 76 79 79 76 76 79 78 78 71 70 68 65 62 62 65 59 52 50 48 48
73 74 75 77 79 80 78 79 77 73 64 62 59 60 57 60 55 52 53 46 46 46
71 73 75 77 79 79 80 78 75 74 71 63 59 56 53 54 51 51 50 47 47 48
70 72 75 76 78 80 77 70 63 64 64 59 55 52 51 52 50 51 47 47 50 52
70 72 73 75 77 77 63 60 58 56 55 54 53 48 49 50 48 48 48 47 52 53
69 71 73 75 76 60 57 55 53 52 51 49 49 48 48 49 48 49 50 50 51 55
68 70 73 73 60 56 54 52 50 49 49 49 48 47 47 49 50 52 52 55 53 54
67 70 72 64 55 54 51 50 49 49 48 48 47 47 48 52 54 56 56 55 55 55
69 71 63 58 53 52 49 48 48 46 48 47 45 46 48 54 58 54 55 52 48 45
68 67 56 52 50 48 47 46 45 44 44 46 47 47 46 48 52 51 52 51 48 48

GFSNIL_sfc_temp_180.txt.gz
Temp
72 75 74 75 77 76 76 76 76 76 76 76 77 76 74 71 73 74 73 73 70 68
72 72 73 73 73 76 76 77 77 77 75 76 75 75 75 71 72 72 73 72 65 64
71 73 73 73 72 73 74 76 76 76 76 75 75 75 74 73 73 72 68 64 64 61
72 73 73 73 73 73 73 74 75 76 76 74 74 74 73 70 67 65 62 62 61 58
71 72 71 71 73 74 74 74 76 76 75 75 75 73 65 64 64 62 60 59 57 56
69 70 69 70 72 74 74 76 76 75 75 67 68 65 63 62 61 60 58 56 54 54
65 69 70 70 71 73 75 75 75 72 66 63 61 59 56 54 55 54 52 52 51 51
64 69 70 69 70 72 73 75 71 67 64 62 59 57 54 52 50 50 48 48 49 49
64 68 66 67 68 69 71 72 66 64 62 57 58 51 53 53 50 49 47 47 47 49
61 66 65 66 67 68 69 70 64 61 58 54 52 48 49 50 49 47 47 45 44 45
60 65 65 64 65 67 62 61 58 54 52 50 49 47 47 48 48 46 46 45 46 44
60 64 64 63 65 57 54 53 52 50 49 48 47 46 47 48 46 46 48 48 48 48
60 64 64 61 54 53 51 50 49 48 48 48 47 45 47 48 47 46 48 47 46 46
60 62 55 52 51 50 49 48 47 46 47 47 47 46 45 45 45 45 46 47 46 46

GFSNIL_sfc_temp_183.txt.gz
Temp
64 62 65 67 67 64 63 59 61 64 69 73 72 70 67 67 69 69 68 68 67 66
64 62 63 63 64 65 65 65 62 64 70 71 71 71 69 67 67 69 69 69 63 62
63 64 63 63 63 64 66 67 67 67 69 67 69 69 68 66 66 68 66 64 61 59
61 63 63 63 63 64 64 66 66 68 68 68 66 67 66 65 63 64 62 61 58 55
59 62 63 62 63 64 64 65 67 68 67 67 66 64 65 62 62 60 60 58 57 55
58 59 62 62 62 63 65 66 65 67 64 64 63 62 61 58 54 52 52 52 53 55
54 57 57 63 61 63 64 66 63 63 61 61 59 58 55 53 53 53 51 50 49 49
54 57 60 61 63 62 62 63 62 61 59 58 57 54 52 53 52 49 49 49 49 50
54 55 57 59 60 60 60 59 61 60 58 56 55 50 51 51 48 48 48 48 48 49
54 55 57 60 60 58 58 58 58 57 55 53 51 48 48 50 49 48 46 46 46 46
54 55 58 57 57 56 56 57 56 53 52 49 47 47 47 48 47 45 45 45 45 44
55 54 56 54 53 53 53 51 51 51 49 47 46 45 46 46 46 44 44 46 46 47
53 54 56 53 53 52 51 49 49 47 47 47 45 44 45 46 45 43 43 42 43 47
52 55 54 52 51 49 49 48 47 46 46 45 44 43 43 44 44 42 41 41 42 46